This is the latest recevied weather packets stored in our database for station/object OE1HTB-13. If no packets are shown the sender has not sent any weather packets the latest 10 day(s).
| Time | Temp. | Humidity | Pressure | Rain* | Wind** | Luminosity | Snow |
|---|---|---|---|---|---|---|---|
| 1787760076 | 25.56° C | 49% | 1015.9 hPa | 0 mm | - | 69 W/m² | - |
| 1787759175 | 26.11° C | 47% | 1015.9 hPa | 0 mm | - | 63 W/m² | - |
| 1787758274 | 26.67° C | 47% | 1016 hPa | 0 mm | - | 70 W/m² | - |
| 1787757374 | 26.67° C | 46% | 1015.9 hPa | 0 mm | - | 114 W/m² | - |
| 1787756474 | 27.22° C | 46% | 1015.9 hPa | 0 mm | - | 388 W/m² | - |
| 1787755574 | 26.67° C | 47% | 1016 hPa | 0 mm | - | 529 W/m² | - |
| 1787754674 | 26.11° C | 49% | 1016.1 hPa | 0 mm | - | 153 W/m² | - |
| 1787753774 | 26.11° C | 47% | 1016.1 hPa | 0 mm | - | 171 W/m² | - |
| 1787752874 | 26.67° C | 48% | 1016.2 hPa | 0 mm | - | 149 W/m² | - |
| 1787751973 | 27.78° C | 44% | 1016.2 hPa | 0 mm | - | 269 W/m² | - |
| 1787751075 | 26.67° C | 47% | 1016.2 hPa | 0 mm | - | 334 W/m² | - |
| 1787750174 | 28.33° C | 43% | 1016.2 hPa | 0 mm | - | 691 W/m² | - |
| 1787749273 | 28.33° C | 42% | 1016.2 hPa | 0 mm | - | 647 W/m² | - |
| 1787748373 | 28.89° C | 43% | 1016.1 hPa | 0 mm | - | 701 W/m² | - |
| 1787747473 | 28.33° C | 44% | 1016.3 hPa | 0 mm | - | 260 W/m² | - |
| 1787746573 | 27.78° C | 43% | 1016.3 hPa | 0 mm | - | 285 W/m² | - |
| 1787745672 | 28.33° C | 45% | 1016.3 hPa | 0 mm | - | 752 W/m² | - |
| 1787744772 | 26.67° C | 47% | 1016.2 hPa | 0 mm | - | 696 W/m² | - |
| 1787743872 | 27.22° C | 45% | 1016.4 hPa | 0 mm | - | 726 W/m² | - |
| 1787742972 | 27.22° C | 47% | 1016.6 hPa | 0 mm | - | 733 W/m² | - |
| 1787742072 | 26.67° C | 48% | 1016.7 hPa | 0 mm | - | 747 W/m² | - |
| 1787741172 | 26.11° C | 51% | 1016.9 hPa | 0 mm | - | 773 W/m² | - |
| 1787740272 | 25.56° C | 49% | 1017 hPa | 0 mm | - | 737 W/m² | - |
| 1787739372 | 25° C | 53% | 1017.1 hPa | 0 mm | - | 826 W/m² | - |
| 1787738471 | 25.56° C | 53% | 1017.1 hPa | 0 mm | - | 703 W/m² | - |
* Rain latest hour (hover to see other rain measurements)
** Current wind speed in m/s (hover to see current wind gust speed)